Theta_e
322 321 321 320 320 319 318 318 317 317 316 316 315 315 315 315 314 313 314 313 313 312 311 310 309 310 310 309 306 302 301 303 304 305 305 304 301 299 298 298 298 298 298 298 298 298 298 298 298 299 300 303
321 321 321 320 319 318 318 317 316 316 315 315 314 314 314 313 313 312 312 312 311 311 311 310 309 308 307 306 303 299 299 300 300 300 299 298 297 297 298 297 297 297 297 297 297 297 297 297 297 298 298 299
320 320 320 320 319 317 317 317 316 315 314 314 313 313 313 312 311 310 310 309 308 308 308 307 307 305 304 302 299 299 299 298 298 297 297 297 297 297 297 297 297 297 297 297 297 297 297 297 297 297 297 297
319 319 319 319 318 317 316 316 315 314 314 313 312 312 312 311 310 308 307 306 305 305 304 303 303 302 301 300 299 298 298 298 298 297 297 297 297 297 297 297 297 297 297 297 297 297 297 297 297 297 297 297
319 318 318 318 318 316 315 315 315 314 313 313 312 311 310 310 309 307 305 304 303 302 301 301 300 300 300 300 299 298 298 298 298 297 297 297 297 297 297 297 297 297 297 297 297 297 297 297 297 297 296 296
318 318 318 317 317 316 315 315 315 314 313 312 311 310 309 308 307 306 305 303 302 301 299 299 299 298 299 299 298 298 298 298 297 297 297 297 297 297 297 297 296 297 296 296 297 297 297 297 297 296 296 296
317 317 317 317 317 316 315 315 315 314 312 311 310 309 307 306 305 304 303 301 300 299 298 298 298 298 298 298 298 298 298 298 297 297 297 297 297 297 297 296 296 296 296 296 296 296 296 296 296 296 296 296
316 316 317 317 316 316 315 315 314 313 312 310 308 307 306 305 304 302 300 299 298 297 297 297 297 297 297 297 297 297 297 297 297 297 296 296 296 297 297 296 296 296 296 296 296 296 296 296 296 296 296 295
316 316 316 316 316 316 315 314 314 313 312 310 307 305 305 304 302 300 298 298 297 296 296 296 296 296 296 296 296 296 296 296 296 296 296 296 296 296 296 296 296 296 296 296 296 296 295 295 295 295 295 295
315 315 315 315 315 315 314 314 313 313 313 310 307 305 304 302 300 298 297 296 296 296 296 296 296 296 296 296 295 295 295 296 296 296 296 296 296 296 296 296 296 296 296 296 295 295 295 295 295 295 295 295
315 315 315 314 314 314 314 313 313 313 313 311 307 304 303 300 298 297 296 295 295 295 295 295 295 295 295 295 295 295 295 295 295 295 295 295 296 296 295 295 295 295 295 295 295 295 295 295 295 295 295 295
314 314 314 314 314 314 313 313 313 313 313 312 307 303 301 299 298 297 295 295 295 295 294 295 295 295 295 294 295 295 295 295 295 295 295 295 295 295 295 295 295 295 295 295 295 295 295 295 295 294 294 294
314 314 313 313 313 313 313 312 312 312 313 312 307 302 300 299 298 296 295 295 294 294 294 294 294 294 294 294 294 294 294 294 294 294 294 294 294 294 295 295 294 294 294 295 294 294 294 294 294 294 294 294
313 313 313 313 313 313 313 312 312 312 312 312 306 300 299 299 298 297 295 294 294 294 294 294 294 294 294 294 294 294 294 294 294 294 294 294 294 294 294 294 294 294 294 294 294 294 294 294 294 294 294 294
313 313 313 312 312 312 312 312 312 311 312 312 306 299 298 298 297 297 296 294 294 294 293 293 293 293 293 293 293 293 293 293 293 293 293 293 294 294 294 294 294 294 294 294 294 294 294 294 294 294 294 294
312 312 312 312 312 311 312 311 311 311 310 309 304 299 298 297 297 297 296 295 294 293 293 293 293 293 293 293 293 293 293 293 293 293 293 293 293 293 293 293 293 293 293 294 293 293 293 293 293 293 293 293
311 311 311 311 311 311 311 311 311 310 307 304 304 303 300 297 296 296 296 295 294 293 293 292 292 292 292 292 292 292 292 293 293 293 293 293 293 293 293 293 293 293 293 293 293 293 293 293 293 293 293 293
309 310 310 310 310 310 310 309 310 310 307 306 307 307 304 301 298 296 296 295 294 293 292 292 292 292 292 292 292 292 292 292 292 292 292 292 292 292 292 292 292 292 292 292 293 293 293 293 293 293 293 293
307 307 308 308 308 308 308 308 308 308 308 307 307 306 305 304 301 297 295 295 294 293 292 292 292 292 292 291 291 291 291 291 292 292 292 292 292 292 292 292 292 292 292 292 292 292 292 292 292 292 292 292
304 305 305 306 306 306 306 306 306 306 305 304 304 303 302 302 301 298 295 295 294 293 292 291 291 291 291 291 291 291 291 291 291 291 291 291 291 292 292 292 292 292 292 292 292 292 292 292 292 292 292 292
302 303 303 303 304 304 304 303 303 303 302 301 300 300 299 299 299 297 295 294 293 292 291 291 291 291 290 290 290 290 291 291 291 291 291 291 291 291 291 292 291 292 292 291 292 291 292 292 292 292 292 292
301 301 301 301 301 301 301 301 300 300 299 299 298 297 297 297 297 296 294 293 292 292 291 291 290 290 290 290 290 290 290 290 290 291 291 291 291 291 291 291 291 291 291 291 291 291 291 291 292 292 292 292
300 300 300 300 300 300 299 299 298 298 297 297 296 296 295 295 295 294 293 292 292 291 291 290 290 290 290 289 290 290 290 290 290 290 290 290 291 291 291 291 291 291 291 291 291 291 291 291 291 291 292 292
299 299 299 299 298 298 298 297 297 296 296 295 295 294 294 294 293 293 292 292 292 291 291 291 290 290 290 289 289 289 290 290 290 290 290 290 290 290 291 291 291 291 291 291 290 291 291 291 291 291 291 291
298 298 298 298 297 297 296 296 295 295 295 294 294 294 293 293 292 292 292 292 291 291 291 291 290 290 290 290 289 289 289 289 289 289 290 290 290 290 290 290 290 290 290 290 290 290 291 290 291 291 291 291
297 297 297 296 296 296 295 294 294 294 294 294 293 293 293 292 292 292 292 291 291 291 291 290 290 290 290 290 290 290 289 289 289 289 289 289 289 290 290 290 290 290 290 290 290 290 290 290 290 291 291 291
296 295 295 295 295 294 294 294 294 293 293 293 293 293 293 292 292 292 292 291 291 291 291 290 290 290 290 290 290 290 289 289 289 289 289 289 289 289 289 289 290 290 290 290 289 289 289 289 290 290 290 291
295 294 294 294 294 293 293 293 293 293 293 293 293 292 292 292 292 292 292 291 291 291 291 291 290 290 290 290 290 290 290 289 289 289 289 289 289 289 289 289 289 289 289 289 289 289 289 289 289 289 290 290
294 294 294 293 293 293 293 293 293 293 293 292 292 292 292 292 292 292 292 292 291 291 291 291 291 290 290 290 290 290 290 290 289 289 289 289 289 289 289 289 289 289 289 289 289 288 288 289 289 289 289 290
294 293 293 293 293 293 292 292 292 292 292 292 292 292 292 292 292 291 291 291 291 291 291 291 291 290 290 290 290 290 290 290 290 289 289 289 289 289 289 289 289 289 289 289 289 288 288 288 288 289 289 289
293 293 292 292 292 292 292 291 291 291 291 291 291 291 291 291 291 291 291 291 291 291 291 291 291 290 290 290 290 290 290 290 290 290 289 289 289 289 289 289 288 288 288 288 288 288 288 288 288 288 288 288
Wind_Speed
18 17 17 17 15 13 12 12 12 10 9 8 6 7 8 8 9 8 6 6 6 5 4 6 7 6 5 5 5 5 4 4 5 6 7 7 7 6 5 4 4 5 5 6 6 6 5 5 6 6 7 7
18 17 17 17 17 16 15 14 13 11 10 10 10 11 12 12 12 10 8 7 6 5 5 6 7 6 5 5 5 5 5 5 5 6 6 6 5 5 5 5 5 5 6 6 6 6 6 5 6 6 7 7
20 19 19 19 18 18 17 17 15 14 13 14 14 14 14 14 14 12 11 9 8 7 8 8 8 7 5 6 6 6 6 6 6 6 6 5 5 5 5 5 5 6 6 6 6 6 6 5 5 6 6 7
21 20 20 20 20 18 18 19 18 17 16 16 16 14 14 14 14 14 12 11 10 9 9 10 9 8 7 7 7 7 7 7 7 6 6 5 5 5 4 4 5 5 6 6 6 6 6 6 5 5 6 6
21 20 21 21 21 20 20 21 20 19 17 17 17 15 15 14 14 13 12 11 10 10 9 8 9 8 7 7 8 8 8 7 7 6 6 6 5 5 4 4 5 5 5 6 6 6 6 6 6 6 6 6
21 21 22 23 23 22 21 21 20 19 18 19 17 16 15 13 12 11 12 11 11 10 9 8 8 9 9 8 9 9 9 8 7 7 7 5 5 5 5 5 5 5 5 5 6 6 6 6 6 6 6 5
21 22 23 23 23 22 22 21 20 19 19 19 16 15 13 11 11 10 11 11 11 9 8 8 9 10 10 10 9 9 9 8 7 7 6 5 5 6 5 5 5 6 6 6 6 6 7 6 6 6 6 6
20 22 23 23 23 22 22 21 20 18 17 17 15 13 11 10 10 11 11 11 10 9 7 8 9 10 11 10 9 9 9 8 7 7 6 6 7 7 6 6 7 7 7 7 7 7 7 7 7 6 6 6
20 21 22 22 22 22 21 20 19 18 17 16 14 12 11 11 11 11 11 11 10 9 8 8 10 11 10 9 9 9 9 8 9 8 8 8 8 8 7 7 8 8 8 8 8 7 7 7 7 7 7 7
20 20 20 20 20 20 20 19 18 18 17 16 15 14 12 11 11 11 12 11 11 10 10 10 10 11 10 10 10 10 10 10 11 10 10 10 9 9 9 8 8 9 9 9 9 9 8 8 8 8 8 8
20 20 20 20 19 19 18 18 18 18 17 15 15 14 13 12 12 12 13 13 12 12 12 12 12 12 11 12 12 12 12 12 12 11 11 10 10 10 10 10 10 10 10 10 10 10 10 9 9 9 9 9
21 20 20 20 19 18 18 18 18 18 17 16 15 15 14 13 13 14 14 14 14 13 13 13 13 12 13 13 14 14 13 13 12 11 11 11 11 11 11 11 11 11 11 11 11 11 11 10 10 10 10 10
21 21 21 20 19 18 19 19 19 18 18 17 15 15 15 14 14 14 15 15 15 14 14 14 14 14 14 15 15 14 14 13 13 12 12 12 12 12 12 12 12 12 12 12 12 12 11 11 12 12 12 12
22 22 21 21 20 19 19 19 19 18 18 17 16 16 16 16 16 16 16 16 16 16 15 15 15 15 15 16 16 15 14 14 13 13 13 13 13 13 13 13 13 14 13 13 13 13 12 13 13 13 13 14
22 22 22 21 21 20 19 20 20 19 18 17 17 16 17 17 17 17 16 16 16 17 16 16 16 16 16 16 16 15 15 15 14 14 14 14 14 15 15 15 15 15 15 14 14 14 14 14 14 15 15 15
22 22 22 22 22 21 20 19 19 19 18 17 16 17 18 18 18 18 17 17 17 17 17 17 17 17 17 17 16 16 15 15 15 16 16 16 15 16 16 16 16 16 16 16 15 15 15 15 15 16 16 16
22 22 22 22 22 21 20 19 19 19 17 16 16 18 19 20 20 19 18 18 17 18 17 17 17 17 17 17 17 16 16 16 16 17 17 16 17 17 17 17 17 17 17 17 16 16 16 16 17 17 17 17
20 21 21 22 21 21 20 19 18 19 18 18 19 20 20 21 21 20 19 18 18 18 18 18 18 18 17 17 17 16 16 17 17 17 17 17 18 18 18 18 18 18 18 18 18 18 18 18 18 18 18 18
17 18 19 19 19 19 19 18 18 19 20 21 21 21 21 21 21 21 19 18 18 18 18 18 19 18 18 18 17 17 17 18 18 18 18 19 19 19 19 19 19 19 18 19 19 19 19 19 19 19 19 20
12 14 15 15 16 16 16 16 17 18 18 18 18 18 18 19 19 19 19 18 18 18 18 18 18 18 18 18 18 18 18 19 19 20 20 20 20 20 20 20 20 20 20 20 20 21 21 21 21 20 20 21
8 10 11 12 12 13 13 14 15 15 15 15 15 15 15 16 16 17 17 18 18 17 17 18 18 18 18 18 18 18 19 20 20 21 21 22 22 21 21 21 21 21 21 21 22 22 22 22 22 22 22 22
6 7 8 9 9 10 11 12 12 12 12 13 13 13 13 14 14 15 15 16 17 17 17 18 18 18 18 18 18 19 20 20 22 22 22 22 22 22 22 22 22 22 22 23 23 24 24 24 24 24 24 24
4 5 6 7 8 8 9 10 10 10 11 11 11 11 12 12 12 13 14 15 16 16 17 17 18 18 18 19 19 20 20 21 22 22 22 22 22 22 22 22 22 22 23 24 25 25 25 25 26 26 26 26
4 5 5 6 6 7 7 8 8 8 9 9 9 9 9 9 10 11 12 13 14 15 15 16 17 17 17 18 19 20 20 21 22 22 22 22 22 22 22 22 22 22 23 25 26 26 27 27 28 28 28 28
4 5 5 5 5 6 6 7 7 6 7 7 7 7 7 7 8 9 10 11 12 13 14 15 15 16 16 17 18 19 19 20 21 22 22 22 22 22 22 22 21 22 23 25 26 27 27 29 29 29 29 30
5 5 6 6 6 6 6 5 5 5 5 5 6 6 6 7 7 8 9 11 12 12 13 13 14 15 15 16 17 17 18 19 20 21 21 22 22 23 23 23 21 22 23 25 26 26 28 30 29 29 30 31
3 4 5 6 7 7 7 7 6 6 5 5 6 7 7 7 8 9 10 11 12 13 13 13 14 14 14 15 16 17 17 18 19 20 20 21 22 22 23 23 22 22 23 24 25 25 27 28 28 29 29 29
3 4 5 5 7 7 8 9 8 7 7 7 8 8 8 9 9 10 11 12 13 13 14 14 14 14 15 15 15 16 17 17 18 18 19 20 21 22 23 23 22 21 22 23 24 23 23 22 22 25 26 27
3 4 4 5 6 7 8 9 8 8 8 8 9 9 9 10 10 11 12 13 13 14 14 14 14 15 15 15 16 17 17 17 17 18 18 19 20 20 22 22 22 22 23 23 23 24 24 21 19 20 21 23
2 3 4 5 6 7 8 8 8 8 8 9 10 10 11 11 12 12 12 13 13 13 14 14 15 15 15 16 17 18 18 18 18 18 18 19 20 20 20 22 23 23 22 22 23 25 27 26 25 26 25 25
1 2 3 4 4 5 6 7 7 7 8 10 11 12 13 13 13 14 14 14 14 14 14 15 15 15 16 17 18 19 20 20 20 20 20 20 21 20 20 22 24 24 22 23 24 24 26 28 29 31 31 31
Wind_Direction
234 238 240 237 233 225 208 208 214 207 206 206 201 196 194 202 202 205 209 207 213 214 219 222 225 225 219 235 245 244 235 223 217 210 219 226 230 237 241 252 261 268 272 271 271 266 261 253 247 241 236 231
237 240 239 236 235 231 216 212 216 209 205 205 206 201 200 206 207 208 210 208 212 211 211 220 231 228 219 229 233 225 214 207 198 195 203 206 218 231 243 259 266 269 271 270 268 263 259 252 245 240 239 237
236 239 240 236 238 237 224 218 218 212 209 211 213 209 207 211 212 213 213 214 215 216 218 218 227 233 226 228 221 213 210 201 193 195 205 216 233 245 253 260 263 267 267 266 265 262 258 251 245 239 237 237
236 239 238 235 240 243 234 229 225 218 214 218 221 218 214 216 218 219 221 224 226 228 231 226 229 234 229 226 220 218 216 207 206 211 220 233 247 258 267 268 268 268 265 262 258 255 252 247 241 234 231 232
237 239 237 236 241 246 245 241 234 227 221 222 225 225 222 223 224 225 229 235 238 242 245 236 230 230 230 229 225 224 224 221 223 227 235 244 254 267 274 274 273 271 269 264 259 253 249 242 234 228 223 223
236 237 237 238 242 247 251 249 243 239 233 228 227 229 230 231 231 231 237 243 247 253 255 244 231 227 231 236 234 232 235 235 236 241 248 256 263 265 265 265 265 262 263 263 261 255 247 240 232 226 222 218
236 237 238 240 244 249 254 253 252 249 244 239 234 234 236 237 241 242 245 249 253 256 256 244 234 231 235 244 248 248 250 250 248 254 262 267 264 259 257 258 257 254 252 251 252 252 247 242 236 231 227 222
236 237 240 243 246 253 256 256 257 258 255 250 243 241 243 243 245 247 250 253 255 255 249 240 237 238 243 252 258 258 258 256 254 258 262 260 257 256 257 255 254 253 252 249 247 248 247 243 240 237 234 231
237 238 240 244 248 253 256 255 258 262 264 260 253 248 248 249 249 249 250 251 254 254 248 240 240 243 247 253 257 256 255 255 255 256 256 257 258 258 257 255 255 253 252 249 247 247 248 247 245 242 239 238
239 239 240 244 249 253 254 255 259 263 267 265 261 255 251 253 253 253 253 253 253 253 251 246 244 246 248 249 250 251 252 253 255 257 258 260 262 261 260 259 257 255 253 249 246 246 246 248 249 247 246 243
240 241 242 245 250 255 255 257 260 265 268 266 263 259 253 252 254 254 254 253 250 247 248 248 246 245 245 245 246 249 251 255 258 261 263 264 265 266 265 263 260 257 255 251 248 245 244 245 247 248 249 247
243 244 245 248 253 257 260 261 263 266 266 263 263 260 257 254 254 256 254 253 250 246 246 248 248 246 245 246 249 254 256 259 263 265 267 269 270 269 267 265 263 260 257 254 250 247 245 243 243 245 247 247
247 247 248 251 256 260 264 266 266 267 265 263 263 262 261 260 258 259 257 255 252 248 247 249 251 250 250 252 256 259 260 263 265 268 270 271 271 271 269 266 263 261 258 255 253 250 248 246 245 245 246 246
251 250 251 253 257 261 266 269 269 269 266 262 262 262 263 263 263 262 259 257 255 251 248 249 251 253 254 257 261 263 263 265 266 269 270 270 271 270 269 266 263 262 259 256 254 252 251 250 249 247 246 246
256 255 255 256 258 262 267 271 272 273 269 262 260 263 266 267 266 265 261 258 256 253 250 250 252 255 258 261 263 265 265 267 268 269 270 271 271 271 271 270 267 264 262 259 255 253 252 251 251 251 249 247
261 261 261 261 262 264 268 271 273 276 272 264 264 269 271 272 271 269 265 261 257 254 251 251 252 254 257 261 263 264 266 267 269 270 271 272 273 274 274 274 273 270 267 263 259 257 256 254 254 253 252 251
266 266 266 265 266 266 268 269 271 273 271 265 270 275 275 275 273 271 268 264 259 255 252 252 254 255 257 260 262 264 266 267 268 269 271 273 274 275 276 275 274 272 270 267 265 263 261 259 258 256 254 253
271 270 269 269 269 269 269 268 268 268 267 269 275 278 276 276 274 272 269 265 262 258 255 254 254 256 258 261 263 264 266 267 269 270 272 274 275 276 277 276 274 273 271 269 268 266 264 262 260 259 257 255
275 274 273 272 272 272 272 271 268 267 267 271 275 276 275 275 273 270 268 266 263 260 257 255 256 258 260 262 264 265 266 268 270 272 274 275 277 277 277 277 276 275 272 270 269 268 266 263 261 259 258 256
277 275 274 274 274 275 275 274 273 271 272 274 275 275 275 274 271 269 268 267 265 262 259 258 258 260 262 263 265 266 268 270 272 273 275 276 277 279 279 280 279 277 275 272 270 269 268 266 264 262 259 258
278 277 276 275 276 277 277 277 277 277 278 279 278 278 277 275 272 270 269 270 269 267 265 264 263 264 266 267 267 268 269 270 272 273 275 277 278 280 282 282 282 280 278 275 272 271 270 269 268 266 264 261
282 278 277 276 276 277 279 279 281 284 286 288 288 288 285 282 278 273 270 271 272 271 271 271 271 270 271 272 271 270 270 271 272 274 276 278 280 283 284 284 284 282 279 276 274 271 270 269 269 268 266 264
296 288 283 281 282 283 287 291 295 299 301 304 304 303 301 295 288 279 274 273 275 276 276 276 277 277 276 276 274 272 272 272 274 276 279 280 281 282 282 282 282 281 279 277 274 273 272 271 270 268 267 265
286 292 294 297 303 307 312 315 317 320 322 326 326 324 320 314 306 295 289 287 286 286 285 284 283 283 281 279 278 276 276 276 277 279 280 281 281 281 281 281 281 281 280 278 277 276 275 272 271 269 268 266
258 271 281 292 307 319 328 333 336 336 335 332 329 327 323 317 311 303 299 296 294 294 293 291 290 288 286 285 283 282 281 280 280 281 282 283 283 283 283 282 282 282 281 279 278 278 277 274 272 272 271 269
253 265 272 282 292 301 312 318 318 316 314 314 312 308 305 302 298 294 292 289 289 291 291 290 290 289 289 289 288 287 286 285 285 285 286 287 286 286 286 285 284 283 282 281 281 281 280 278 276 274 271 269
245 262 270 279 284 289 291 287 285 287 291 292 290 288 288 288 287 286 285 284 285 285 286 286 286 286 287 288 289 289 289 289 290 291 292 292 292 291 289 287 285 284 284 283 283 281 278 278 280 278 274 272
230 247 255 264 272 279 280 279 282 285 287 287 286 287 289 288 288 289 288 287 286 286 286 286 285 285 285 286 288 288 289 289 290 292 294 295 295 294 292 290 288 286 286 285 283 277 273 276 279 278 279 280
232 241 246 252 261 270 274 279 283 284 287 288 291 294 297 298 296 294 293 292 291 290 290 289 287 286 286 286 285 285 286 286 288 289 290 292 292 292 293 293 290 287 286 286 284 276 270 271 272 275 282 286
237 243 246 250 256 265 272 280 286 290 293 292 294 298 301 302 299 296 295 293 292 290 290 288 288 287 286 285 284 283 284 283 284 284 284 285 286 287 289 290 288 285 285 286 284 279 275 272 271 274 279 282
246 249 255 261 266 274 282 293 301 306 304 301 302 302 301 300 297 296 294 292 290 287 286 285 284 284 283 282 282 281 282 282 281 281 280 281 281 282 283 284 284 283 285 284 281 281 280 278 276 276 276 275